TimeMDT,TemperatureF,Dew PointF,Humidity,Sea Level PressureIn,VisibilityMPH,Wind Direction,Wind SpeedMPH,Gust SpeedMPH,PrecipitationIn,Events,Conditions,WindDirDegrees,DateUTC
12:53 AM,44.1,28.9,55,30.01,10.0,South,10.4,-,N/A,,Scattered Clouds,190,2012-11-02 06:53:00
1:53 AM,46.0,30.0,54,30.01,10.0,SSW,10.4,-,N/A,,Mostly Cloudy,200,2012-11-02 07:53:00
2:53 AM,43.0,30.0,60,30.02,10.0,South,9.2,-,N/A,,Clear,190,2012-11-02 08:53:00
3:53 AM,41.0,28.9,62,30.03,10.0,South,9.2,-,N/A,,Scattered Clouds,180,2012-11-02 09:53:00
4:53 AM,42.1,30.0,62,30.03,10.0,South,9.2,-,N/A,,Clear,180,2012-11-02 10:53:00
5:53 AM,39.0,28.9,67,30.06,10.0,South,10.4,-,N/A,,Clear,180,2012-11-02 11:53:00
6:53 AM,39.9,28.9,65,30.08,10.0,South,10.4,-,N/A,,Clear,180,2012-11-02 12:53:00
7:53 AM,37.9,28.0,68,30.10,10.0,South,12.7,-,N/A,,Clear,190,2012-11-02 13:53:00
8:53 AM,39.0,28.9,67,30.10,10.0,South,12.7,-,N/A,,Clear,190,2012-11-02 14:53:00
9:53 AM,46.9,32.0,56,30.10,10.0,South,10.4,-,N/A,,Clear,190,2012-11-02 15:53:00
10:53 AM,53.1,32.0,45,30.10,10.0,SSW,8.1,-,N/A,,Clear,210,2012-11-02 16:53:00
11:53 AM,54.0,34.0,47,30.11,10.0,Calm,Calm,-,N/A,,Clear,0,2012-11-02 17:53:00
12:53 PM,57.0,34.0,42,30.09,10.0,NE,3.5,-,N/A,,Clear,50,2012-11-02 18:53:00
1:53 PM,59.0,33.1,38,30.06,10.0,North,4.6,-,N/A,,Clear,10,2012-11-02 19:53:00
2:53 PM,61.0,28.0,29,30.04,10.0,North,4.6,-,N/A,,Clear,350,2012-11-02 20:53:00
3:53 PM,61.0,28.0,29,30.04,10.0,NW,5.8,-,N/A,,Clear,310,2012-11-02 21:53:00
4:53 PM,57.9,27.0,31,30.04,10.0,NW,8.1,-,N/A,,Clear,320,2012-11-02 22:53:00
5:53 PM,55.9,28.0,34,30.05,10.0,NNW,3.5,-,N/A,,Clear,340,2012-11-02 23:53:00
6:53 PM,48.0,28.0,46,30.07,10.0,Calm,Calm,-,N/A,,Clear,0,2012-11-03 00:53:00
7:53 PM,39.9,28.0,63,30.11,10.0,Calm,Calm,-,N/A,,Clear,0,2012-11-03 01:53:00
8:53 PM,39.0,28.0,65,30.12,10.0,SE,5.8,-,N/A,,Clear,130,2012-11-03 02:53:00
9:53 PM,39.9,28.0,63,30.09,10.0,SE,6.9,-,N/A,,Clear,130,2012-11-03 03:53:00
10:53 PM,39.0,28.0,65,30.09,10.0,SE,5.8,-,N/A,,Clear,130,2012-11-03 04:53:00
11:53 PM,39.9,28.0,63,30.09,10.0,South,8.1,-,N/A,,Clear,180,2012-11-03 05:53:00